Flag for U.S.A. Weather past 2 weeks in Baton Rouge, Louisiana, U.S.A.

66 °F

Mostly cloudy.

Feels Like: 66 °F
Forecast: 64 / 76 °F
Wind: 14 mph from East

Location: Baton Rouge Metropolitan - Ryan Field

Current Time: Nov 26, 2015 at 1:06:49 AM

Latest Report: Nov 25, 2015 at 11:53 PM

Visibility: 10 mi

Pressure: 30.28 "Hg

Humidity: 81%

Dew point: 60 °F

Location of Baton RougeLocation

Historic Weather in Baton Rouge — Graph


Baton Rouge temperature yesterday

Maximum temperature yesterday: 76 °F (at 12:53 PM)
Minimum temperature yesterday: 47 °F (at 4:53 AM)
Average temperature yesterday: 63 °F

Past Weeks' High & Low Weather Summary

High83 °F (Nov 17, 11:53 AM)97% (Nov 11, 6:02 AM)30.39 "Hg (Nov 11, 6:02 AM)
Low32 °F (Nov 23, 6:53 AM)23% (Nov 14, 12:53 PM)29.69 "Hg (Nov 17, 4:53 PM)
Average59 °F70%30.12 "Hg
* Reported Nov 10 11:53 PM — Nov 25 11:53 PM, Baton Rouge, Weather by CustomWeather, © 2015

Note: Actual official high and low records may vary slightly from our data, if they occured in-between our weather recording intervals... More about our weather records


Baton Rouge weather history for previous 24 hours

Time TempWeatherWind HumidityBarometerVisibility
11:53 PM
Wed, Nov 25
66 °FMostly cloudy.14 mph81%30.28 "Hg10 mi
10:53 PM66 °FMostly cloudy.15 mph84%30.29 "Hg10 mi
9:53 PM67 °FMostly cloudy.15 mph81%30.27 "Hg10 mi
8:53 PM67 °FOvercast.14 mph81%30.27 "Hg10 mi
7:53 PM68 °FOvercast.13 mph78%30.26 "Hg10 mi
6:53 PM68 °FMostly cloudy.12 mph78%30.24 "Hg10 mi
5:53 PM68 °FMostly cloudy.16 mph78%30.22 "Hg10 mi
4:53 PM69 °FOvercast.22 mph76%30.22 "Hg10 mi
3:53 PM72 °FBroken clouds.16 mph68%30.20 "Hg10 mi
3:01 PM73 °FPartly sunny.17 mph64%30.20 "Hg10 mi
2:53 PM73 °FPartly sunny.15 mph64%30.19 "Hg10 mi
1:53 PM74 °FPartly sunny.13 mph64%30.20 "Hg10 mi
12:53 PM76 °FPartly sunny.17 mph60%30.21 "Hg10 mi
11:53 AM73 °FPartly sunny.16 mph64%30.23 "Hg10 mi
10:53 AM72 °FSunny.15 mph64%30.24 "Hg10 mi
9:53 AM67 °FSunny.12 mph68%30.25 "Hg10 mi
8:53 AM61 °FOvercast.10 mph72%30.25 "Hg10 mi
7:53 AM54 °FPartly sunny.9 mph74%30.24 "Hg10 mi
6:53 AM51 °FPartly sunny.9 mph74%30.23 "Hg10 mi
5:53 AM49 °FPassing clouds.7 mph74%30.22 "Hg10 mi
4:53 AM47 °FClear.6 mph74%30.22 "Hg10 mi
3:53 AM48 °FClear.5 mph71%30.21 "Hg10 mi
2:53 AM48 °FClear.7 mph71%30.22 "Hg10 mi
1:53 AM48 °FPassing clouds.7 mph74%30.22 "Hg10 mi
Weather by CustomWeather, © 2015

See weather overviewHow to use our weather pages